Voltar ao catálogo

USA 455

AtivoMilitarVLEO
NORAD 62354·PAYLOAD·🇺🇸 United States

Lançado Dec 17, 2024 de Vandenberg Space Force Base

Loading…

Próximas Passagens (próximas 24 horas)

TLE

ObsoletoSource: Mike McCants

Época: Aug 11, 2026, 21:42 UTC

1 62354U 24243Q   26223.90456351 0.00000000  00000-0  00000-0 0    06
2 62354  70.0190 142.0230 0002000  52.3248 307.6752 14.96713386    05

Acompanhe USA 455 em tempo real com AllMySat

Download on the App Store